Theta_e
332 333 333 333 333 334 335 334 331 330 330 329 330 331 331 330 330 330 329 327 326 326 327 327 326 326 325 325 325 324 324 325 325 326 326 326 326 326 326 327 326 326 327 327 327 329 331 331 329 330 330 329 329 328 329 327 327 326 325 324 323 321 321 320 316 313 313 312 311 310 311 312 312 312 312 310 309 310 312 312 310 308 307 307 307
332 332 332 332 332 333 334 333 331 330 330 330 330 330 330 330 330 329 329 328 326 325 327 327 326 326 325 324 324 324 324 324 325 325 325 326 326 325 325 325 324 324 325 326 325 327 330 331 330 330 330 329 329 328 328 328 327 326 324 323 321 320 320 318 316 314 315 314 312 312 312 312 312 313 313 311 310 310 311 312 311 309 308 309 310
332 332 332 331 332 332 333 333 331 330 330 330 330 330 330 330 329 329 329 328 326 325 326 326 325 325 325 324 324 323 322 323 324 325 324 325 325 325 324 324 324 324 325 325 324 325 328 330 331 330 330 330 329 327 327 327 327 325 324 322 318 318 318 317 316 316 316 315 314 313 313 313 313 313 313 313 312 311 311 312 313 311 311 312 313
332 333 332 332 332 332 332 333 332 331 330 330 329 329 329 329 329 329 328 327 326 325 325 325 324 323 323 324 324 322 321 321 323 324 323 324 324 324 324 324 324 324 324 323 323 324 326 330 331 330 330 330 328 325 325 325 325 323 322 320 317 317 318 317 316 317 317 317 315 314 314 314 314 314 314 314 314 312 312 313 314 313 313 313 314
331 332 332 332 332 332 332 332 332 330 329 328 328 329 329 329 329 329 327 326 326 324 323 323 323 322 322 323 322 321 319 319 321 323 323 323 323 322 323 323 323 323 322 322 322 324 326 329 331 331 330 330 328 325 324 324 322 321 321 320 318 317 317 317 316 316 316 316 316 315 315 315 315 315 314 314 315 315 314 313 314 314 314 313 313
331 332 332 332 332 332 332 331 331 330 329 328 328 328 328 328 328 328 327 326 324 323 323 322 321 320 321 321 320 319 318 318 319 321 322 322 322 322 322 322 322 322 321 321 321 323 324 327 330 331 330 330 328 326 325 323 322 321 320 320 318 317 317 317 316 316 316 316 316 316 316 316 315 315 315 315 315 315 315 314 314 314 314 314 313
331 331 331 331 331 331 331 331 332 331 329 328 327 327 328 328 328 327 326 324 323 322 321 321 320 320 320 320 320 318 317 317 318 319 321 322 322 322 322 322 322 321 321 320 321 322 323 325 329 331 330 330 329 326 324 322 321 321 320 319 318 317 317 317 316 317 317 316 316 316 316 316 316 316 315 315 315 315 315 315 314 314 313 314 314
329 329 330 331 329 328 328 329 331 331 330 329 328 328 328 328 327 326 324 321 320 320 319 319 319 318 319 319 318 317 317 317 318 319 320 320 321 321 322 322 322 321 322 321 321 322 322 324 328 329 328 328 327 326 324 323 322 321 320 320 319 318 318 318 317 318 318 317 317 317 317 316 316 316 316 315 314 315 315 315 315 314 314 314 314
328 329 330 330 328 327 327 328 329 330 330 329 329 329 328 327 325 323 321 320 319 319 319 318 318 318 318 318 318 319 320 319 318 319 319 320 320 320 320 320 320 321 321 321 320 321 321 323 324 325 326 327 327 326 326 324 323 322 321 321 320 319 319 319 319 319 318 318 318 318 319 318 317 316 316 316 315 314 315 315 315 315 315 315 315
328 329 329 328 327 326 326 326 327 328 329 328 328 328 326 324 322 321 320 320 320 319 319 318 318 318 318 319 321 322 320 318 317 318 318 319 320 320 318 318 319 319 320 320 320 320 321 321 320 319 320 323 325 326 326 325 323 323 323 322 322 321 320 320 320 320 319 319 319 319 319 319 319 318 317 317 316 315 315 315 315 316 316 316 316
327 327 326 326 326 324 324 325 327 328 328 327 327 326 324 321 320 320 320 320 320 319 319 319 319 320 321 322 321 318 315 314 314 315 316 317 319 320 319 318 318 318 319 319 319 319 320 320 318 315 316 318 318 319 320 320 320 320 320 321 321 321 321 321 320 320 320 319 319 319 319 319 319 318 318 318 317 316 316 316 316 316 316 316 316
322 322 323 323 324 324 324 324 325 326 327 327 326 325 324 323 322 322 323 323 323 322 322 323 323 323 322 320 317 314 313 313 312 313 314 314 315 318 320 319 318 318 318 319 319 318 319 320 319 318 319 320 318 316 315 315 315 315 316 317 317 318 319 320 320 320 320 320 319 318 319 319 319 318 318 318 317 317 317 316 316 316 316 316 316
317 317 319 320 320 321 321 321 321 322 322 322 322 322 321 321 320 320 320 321 322 323 323 323 322 320 318 316 314 314 314 313 313 313 313 312 313 316 319 318 317 318 319 319 319 319 318 320 320 320 321 320 319 318 318 317 316 315 314 314 314 315 315 316 317 318 318 319 319 319 318 318 318 317 317 317 316 317 316 316 316 316 316 316 316
313 314 315 316 316 317 317 318 317 318 318 318 318 318 317 317 317 317 317 318 320 321 321 319 318 317 315 315 315 316 315 315 315 314 314 313 313 315 319 319 317 318 319 319 320 320 319 320 320 320 320 320 318 318 320 321 321 319 317 316 315 315 314 314 314 314 315 315 317 318 319 319 318 318 317 317 316 316 317 317 316 316 316 317 317
309 310 310 311 312 313 314 314 314 315 316 317 317 316 316 316 316 316 317 317 318 319 318 317 316 315 314 314 316 316 316 317 317 317 317 316 315 316 320 321 319 319 320 319 319 319 319 319 319 318 319 320 319 318 319 320 321 322 321 320 319 318 318 317 315 314 313 313 313 315 317 317 318 318 318 318 318 317 318 318 317 317 317 317 319
306 307 307 308 308 309 310 311 311 312 313 315 315 315 315 315 314 314 315 315 315 315 315 315 315 314 312 312 313 314 314 315 317 318 319 318 318 319 321 321 320 321 322 322 321 321 321 321 320 319 320 321 321 319 318 317 318 319 320 320 320 320 320 320 320 318 316 315 315 316 317 317 317 318 318 319 320 319 320 320 319 319 318 318 318
303 304 304 305 306 306 307 308 309 309 310 311 311 311 311 311 311 311 311 311 312 312 312 312 313 312 311 310 310 310 311 312 313 315 317 318 318 319 320 320 320 321 322 323 322 322 323 323 322 322 322 322 323 322 320 319 318 319 321 320 320 320 319 319 320 320 318 318 317 317 317 317 317 317 317 318 318 318 319 320 320 319 319 319 318
302 302 302 303 304 304 305 305 306 306 307 307 307 307 308 308 308 308 309 309 310 310 310 311 311 311 311 309 307 307 308 309 309 310 312 314 316 317 318 318 319 320 321 322 321 321 322 322 320 320 320 321 322 323 323 321 320 321 322 322 321 322 322 321 321 320 319 319 318 317 317 316 316 315 315 316 316 315 316 318 319 319 318 319 319
300 300 301 302 302 302 303 303 303 304 304 305 305 305 306 306 307 307 307 308 308 307 308 308 308 309 309 308 307 308 308 306 304 305 306 308 309 312 314 315 316 318 318 318 318 319 319 319 318 316 315 315 316 317 318 318 317 318 320 322 323 323 322 322 321 320 320 320 319 319 319 319 318 317 316 315 315 315 315 315 316 317 318 318 318
299 299 299 300 301 301 301 302 302 302 302 302 303 304 305 305 305 306 306 307 306 306 306 306 306 306 306 306 305 307 308 305 301 299 300 301 301 304 309 313 312 312 313 313 313 313 314 317 317 315 313 312 311 310 309 309 308 309 311 316 320 322 322 321 320 319 320 320 320 320 320 321 320 319 318 317 316 316 315 314 315 316 317 318 318
299 299 299 299 299 299 299 300 301 301 302 302 302 303 303 303 304 304 305 306 306 306 306 306 306 306 306 306 305 304 304 302 299 297 297 298 297 299 305 308 306 305 306 308 308 309 310 314 315 314 313 312 310 309 308 305 304 303 303 305 310 313 315 316 317 318 319 320 320 320 321 321 321 320 320 319 318 317 317 316 315 315 316 317 318
300 300 300 299 298 298 297 298 298 299 300 301 302 302 302 302 303 304 304 305 305 306 306 306 307 306 306 307 306 304 302 299 297 296 296 297 296 297 300 301 300 299 303 306 307 308 308 310 310 310 309 309 307 307 307 304 301 300 300 300 301 302 304 305 307 310 315 319 320 320 320 320 320 320 320 319 319 318 317 317 316 315 315 315 316
299 299 300 300 300 299 298 298 298 298 299 300 301 302 303 303 303 304 304 305 305 305 305 306 307 307 307 307 306 306 304 301 298 297 297 296 296 296 296 296 296 297 300 303 305 305 306 307 307 306 307 307 306 305 303 301 299 299 299 299 299 300 300 301 302 303 306 311 314 317 318 318 317 318 318 318 318 317 317 316 315 314 313 313 314
298 298 299 300 300 300 300 300 300 301 301 301 302 303 303 304 304 304 304 305 305 305 305 305 306 306 306 306 305 305 305 304 302 301 300 298 297 297 296 296 296 295 296 299 302 303 304 304 304 304 304 303 303 302 299 298 298 298 298 299 299 299 300 301 302 304 305 307 310 313 315 316 317 317 316 316 316 315 314 313 313 312 311 311 311
299 299 299 300 300 301 301 302 301 302 302 302 303 303 303 304 304 304 305 305 305 305 304 304 305 304 304 305 305 305 305 305 304 303 301 300 299 299 298 298 298 296 297 299 300 300 300 300 300 299 299 298 298 297 297 298 299 298 298 298 298 299 302 304 306 307 308 309 310 311 312 313 315 315 315 315 314 312 311 311 310 310 309 308 307
299 300 300 300 300 301 301 302 302 302 302 303 303 303 303 303 303 304 304 305 304 304 304 304 304 305 305 305 306 305 305 306 305 303 301 301 300 300 299 300 300 299 299 300 300 300 299 299 298 297 297 297 298 298 299 300 300 299 299 299 299 301 304 307 307 308 309 309 309 310 311 312 312 313 313 313 312 311 310 309 308 307 307 306 304
300 300 300 300 300 301 301 301 302 302 302 302 302 302 303 304 304 303 304 304 305 305 304 304 304 305 305 305 305 305 305 305 304 302 300 300 299 299 300 300 300 301 301 301 301 300 299 298 298 298 299 300 301 301 302 302 303 303 303 304 304 305 306 306 306 307 308 308 309 310 310 311 311 311 311 311 310 309 308 307 306 305 304 303 302
300 300 300 300 300 300 301 301 302 302 301 300 299 300 300 302 303 303 301 301 302 304 305 305 304 304 305 305 304 305 305 303 300 298 297 297 297 297 298 299 300 300 300 299 298 297 297 298 299 301 302 302 303 304 304 304 305 305 306 306 306 306 306 306 307 307 306 307 307 308 309 310 311 310 309 309 308 307 306 305 304 303 302 301 300
300 300 300 300 300 300 301 301 302 302 302 300 299 298 298 299 301 301 299 297 298 299 301 301 301 301 303 303 302 303 303 300 297 296 296 295 295 295 296 297 297 297 297 297 296 296 297 299 301 302 303 303 303 303 303 303 303 303 304 304 304 304 305 305 306 306 306 307 307 307 308 309 309 309 309 308 308 307 306 305 304 302 301 301 300
300 300 299 300 300 300 301 301 301 301 302 301 300 299 298 298 298 299 298 297 297 297 297 298 297 298 300 301 299 299 299 298 296 296 296 295 295 295 295 295 296 296 296 297 297 297 298 300 302 302 302 302 302 302 302 302 302 302 302 303 303 303 304 304 304 305 305 305 305 306 306 306 306 307 307 307 307 307 306 304 303 301 300 300 299
301 300 299 299 299 299 300 300 301 301 301 301 301 301 300 298 298 298 297 297 297 297 297 297 296 296 297 298 297 297 297 296 296 297 296 296 295 295 295 296 296 296 297 297 297 298 299 301 302 302 302 301 301 301 301 301 301 301 302 302 302 303 303 303 303 304 303 303 303 303 304 304 304 304 304 304 304 304 303 302 301 299 298 299 298
300 300 300 299 299 299 300 300 300 300 301 301 301 301 301 301 299 298 298 298 298 298 297 297 296 296 296 297 297 297 297 297 297 297 297 296 296 296 296 297 297 297 297 298 298 299 300 301 301 301 301 301 301 301 301 301 301 301 301 301 302 302 302 303 303 304 303 303 303 302 302 301 301 302 302 301 301 301 300 299 299 298 298 298 297
299 299 299 300 299 299 299 300 300 300 300 300 300 300 301 301 301 300 299 298 298 298 298 298 297 296 296 297 297 297 297 297 297 297 297 297 297 297 297 297 297 298 298 298 299 300 301 301 301 301 301 301 301 301 301 301 301 301 301 301 301 302 302 303 303 303 303 303 302 302 302 301 300 300 300 299 299 298 298 297 298 298 297 297 296
298 297 298 299 299 299 299 299 300 300 300 300 300 300 300 300 300 301 300 299 299 298 298 298 297 297 297 297 297 297 297 297 297 297 297 298 298 298 298 298 298 298 299 299 300 300 300 300 300 300 300 300 301 301 300 300 301 301 301 301 301 301 301 301 302 302 302 301 301 301 301 300 300 299 298 297 297 297 297 296 296 296 295 295 295
298 298 297 297 299 299 299 299 299 299 299 300 300 300 300 299 299 300 300 300 300 300 300 299 298 298 297 297 297 297 297 296 297 297 297 298 299 299 299 300 299 299 299 300 300 300 300 300 300 300 300 301 301 300 300 300 300 299 299 299 299 299 298 299 299 299 299 299 299 299 299 299 299 298 296 296 296 296 295 295 295 294 294 294 294
299 299 298 298 298 298 298 299 299 299 299 299 299 299 299 299 299 299 299 299 299 300 301 300 299 298 298 297 297 297 297 297 297 297 297 298 298 299 299 300 300 300 300 300 300 299 300 300 300 300 300 300 300 299 299 298 298 297 297 297 296 296 296 296 297 297 297 297 297 297 297 297 297 296 295 295 295 294 294 295 294 294 294 294 294
298 299 298 298 298 298 298 298 299 298 297 297 298 299 299 299 299 299 299 299 298 299 300 300 300 299 299 298 297 297 297 297 297 297 297 298 298 298 299 300 300 299 299 299 299 299 299 299 299 299 298 298 298 297 297 296 296 295 295 295 294 294 294 294 295 295 295 295 295 295 295 295 295 295 294 294 294 294 293 294 293 293 293 293 293
298 298 297 296 296 298 298 298 298 297 297 297 298 299 298 298 298 298 299 298 298 298 299 299 299 299 298 297 296 297 297 297 298 298 297 298 298 298 299 299 298 298 298 298 298 298 298 298 297 297 297 296 296 296 295 295 294 294 293 293 293 293 293 292 292 293 293 293 293 293 293 294 294 294 294 294 293 293 293 292 292 292 292 292 293
299 298 296 294 295 296 297 297 297 297 297 298 298 298 298 298 298 298 298 298 298 298 298 299 298 298 297 296 296 297 298 298 298 298 297 297 298 298 298 298 297 297 297 297 297 297 297 297 297 296 296 295 295 294 294 294 293 293 293 293 292 292 292 292 292 292 292 292 292 292 292 292 292 293 293 293 293 293 292 292 292 292 292 292 293
299 298 296 295 296 296 297 297 297 297 297 298 298 298 298 298 297 298 298 298 297 297 298 298 298 297 295 294 295 296 297 298 298 297 297 297 297 297 297 297 296 296 296 296 295 295 296 296 295 295 294 294 294 294 294 293 293 293 293 293 293 292 292 292 291 291 291 291 292 292 292 292 292 292 292 292 292 292 292 292 292 292 292 292 292
299 298 298 297 297 297 297 297 297 297 297 297 297 297 298 297 297 297 297 297 297 297 297 297 297 295 294 294 295 295 296 297 297 297 297 296 296 296 296 296 295 295 294 294 294 294 294 294 294 294 293 293 293 293 293 293 294 294 293 293 293 293 292 292 291 291 291 291 291 291 291 291 291 291 291 291 291 291 291 292 292 292 292 292 292
299 298 298 297 297 297 297 297 297 297 297 296 296 297 297 297 297 297 296 296 296 296 296 297 296 295 294 294 295 296 296 296 296 296 296 296 295 295 295 294 294 293 293 293 292 293 293 293 293 293 293 293 293 293 293 294 294 294 293 293 293 293 292 292 292 291 291 291 291 291 291 291 291 291 291 291 291 291 291 292 292 292 292 292 292
298 298 297 297 297 297 296 296 296 296 296 296 296 296 296 296 296 296 296 296 296 296 296 296 296 296 295 294 295 296 296 295 295 295 295 294 294 294 294 293 293 292 292 291 291 292 293 293 292 292 292 292 293 293 293 293 294 293 293 293 293 292 292 292 292 291 291 291 291 291 291 291 291 291 291 291 291 291 291 291 291 291 292 292 292
298 298 297 297 297 297 296 296 296 295 295 294 294 295 295 296 296 296 296 296 295 295 295 296 295 295 295 295 295 295 295 295 294 294 294 293 294 293 293 292 291 291 291 291 290 290 292 292 292 292 292 293 293 293 293 293 293 293 293 293 292 292 292 292 292 291 291 291 291 291 291 291 291 291 291 291 291 291 291 291 291 291 291 292 292
298 298 297 297 296 296 296 296 296 295 294 294 295 295 295 295 295 295 295 295 295 295 295 295 295 295 295 295 295 295 295 294 294 293 293 293 293 292 291 291 291 291 292 292 291 291 291 291 291 291 291 292 293 293 293 293 293 293 293 292 292 292 291 291 291 291 291 291 291 291 291 291 291 291 291 291 291 291 291 291 291 291 291 291 292
298 298 297 296 296 296 296 296 295 295 295 295 295 295 295 295 295 295 295 295 295 295 295 295 294 294 294 294 294 294 294 294 294 293 293 292 292 291 291 292 292 292 292 292 292 292 291 291 291 291 291 292 292 292 293 293 293 293 293 292 292 291 291 291 291 291 291 291 291 291 291 291 291 291 291 291 291 291 291 291 291 291 291 291 291
298 298 297 296 296 296 296 295 295 295 295 295 294 295 295 295 295 295 295 294 295 295 295 294 294 294 294 294 294 293 293 294 293 293 293 292 292 292 292 292 291 292 292 292 292 292 292 292 292 291 291 291 291 291 292 292 292 292 292 292 291 290 290 290 290 291 291 291 291 291 291 291 291 291 291 291 291 291 291 291 291 291 291 291 291
298 298 297 296 296 296 296 295 295 295 295 295 294 294 295 295 295 295 295 295 295 295 294 294 294 294 294 294 293 293 293 293 293 293 293 292 291 291 291 291 290 290 291 290 290 291 290 290 290 290 290 289 289 290 291 291 291 291 291 291 290 290 289 289 290 290 290 290 290 291 291 290 291 291 291 291 291 291 291 291 291 291 291 291 291
297 297 297 296 296 296 296 295 295 296 296 295 295 295 295 295 295 295 295 295 295 295 295 294 294 294 294 293 293 293 293 293 293 293 293 292 291 290 289 289 289 289 288 288 288 288 288 287 287 288 288 288 289 289 289 289 290 290 290 290 290 289 289 289 289 290 290 290 290 290 290 290 290 290 291 291 291 291 290 291 290 291 291 291 291
297 297 297 296 296 296 295 295 295 296 296 295 295 295 295 295 295 295 295 295 295 295 295 294 294 294 294 293 293 293 293 293 293 293 292 292 291 290 289 289 288 288 288 288 287 287 287 287 287 287 287 288 288 289 289 289 289 289 289 289 289 289 289 289 289 290 290 290 290 290 290 290 291 291 291 291 291 290 290 291 291 291 291 291 291
296 296 297 296 296 295 295 295 295 295 295 295 295 295 295 295 295 295 295 295 295 295 294 294 294 294 294 293 293 293 293 292 292 292 292 292 291 290 289 289 288 288 288 288 288 287 287 287 287 287 287 288 288 288 288 288 288 288 288 288 288 288 289 289 289 289 290 290 290 290 290 290 291 291 291 291 291 290 290 290 291 291 291 291 291
Wind_Speed
29 28 30 29 25 21 17 17 17 16 17 18 16 15 14 13 13 12 11 9 9 9 9 9 10 9 9 10 9 8 6 5 5 4 5 5 5 6 6 6 6 6 5 6 6 7 8 8 9 9 9 9 9 9 12 14 13 13 13 10 7 8 10 8 13 11 9 10 11 13 14 14 13 13 13 13 14 14 11 12 14 12 10 10 9
25 24 28 29 28 24 19 18 17 17 18 18 16 16 15 14 13 12 11 10 9 10 9 9 9 9 10 10 9 8 7 6 6 5 5 5 5 6 6 6 6 5 5 5 6 6 7 7 9 9 8 9 9 9 10 13 14 15 15 11 8 9 10 8 16 12 10 11 11 13 14 13 12 13 13 14 15 14 12 13 13 12 12 12 12
25 24 27 29 28 23 19 18 18 18 19 18 17 16 15 14 13 12 11 10 10 9 9 9 9 9 9 9 9 8 7 7 6 6 6 6 6 5 4 4 4 5 5 5 6 6 6 7 8 9 9 8 8 9 10 11 12 14 14 10 9 10 10 8 17 13 11 12 12 13 13 12 12 13 14 14 14 14 13 13 13 11 12 12 12
27 27 27 27 26 22 20 18 18 19 20 18 17 16 15 14 13 13 12 10 10 9 9 9 8 8 9 9 9 8 7 7 6 6 7 6 6 5 4 4 5 5 5 4 4 5 6 7 8 9 10 9 9 10 11 12 11 11 11 8 10 9 7 8 17 15 12 12 12 13 14 13 12 13 14 14 14 13 13 13 13 12 12 11 10
26 27 27 25 23 20 20 19 18 19 19 18 18 17 16 15 14 13 12 11 10 10 9 9 8 9 9 9 9 8 7 7 7 6 6 6 6 6 6 6 6 5 4 3 2 3 6 7 8 10 11 10 10 10 11 12 12 12 11 10 11 9 5 6 12 14 14 13 11 11 13 13 12 12 14 14 14 13 13 13 13 12 12 11 11
25 27 27 24 21 19 19 18 17 19 19 17 18 18 16 15 14 13 12 11 10 10 10 9 9 9 9 9 8 7 7 7 7 7 7 6 6 6 6 6 6 5 5 4 2 2 5 7 8 10 11 10 10 11 11 12 11 11 12 11 11 11 8 8 8 10 13 14 12 11 11 13 12 11 12 13 13 13 12 12 12 12 12 11 12
24 26 25 21 20 21 21 19 18 20 20 18 18 18 16 15 14 13 12 11 10 10 10 9 9 9 9 9 7 7 6 6 6 6 7 7 6 6 6 6 6 5 5 5 3 1 3 6 8 9 9 8 9 10 12 12 10 10 11 11 10 13 12 10 9 8 9 11 13 12 11 12 12 11 11 12 12 12 12 12 12 12 12 13 12
23 24 22 19 20 23 22 18 18 20 19 17 17 17 16 15 14 13 13 12 10 10 10 9 9 8 8 8 7 7 5 5 6 5 5 6 6 6 6 6 7 6 4 4 3 1 1 4 6 6 6 7 9 9 11 11 9 9 10 10 8 11 13 11 10 9 10 10 10 10 11 12 11 11 11 11 12 12 12 12 12 12 12 13 14
21 21 19 19 22 25 24 19 16 16 17 16 16 16 16 15 14 14 13 12 11 10 10 9 9 8 8 8 7 6 4 5 7 5 4 5 5 5 5 6 7 7 6 5 4 3 2 2 2 3 5 8 9 9 9 11 9 7 8 8 7 7 10 10 10 10 11 11 11 10 11 11 11 12 12 12 12 12 12 12 12 11 11 11 13
19 17 16 19 22 25 24 20 16 15 16 17 15 15 16 15 15 15 14 12 11 11 10 9 9 9 8 8 6 4 4 6 8 5 4 5 3 3 5 5 5 6 7 7 6 5 4 3 3 3 5 6 7 7 8 10 10 7 6 8 8 7 9 10 11 11 11 11 12 12 12 12 12 13 14 13 13 12 11 12 12 12 12 12 13
21 17 15 17 17 20 22 20 17 15 16 17 16 16 17 15 15 14 13 12 11 10 10 9 8 9 9 8 6 5 5 7 7 6 4 3 3 2 3 4 5 5 6 6 6 6 5 5 5 4 4 5 5 6 7 9 10 9 6 8 9 8 8 9 10 10 10 11 12 12 12 13 13 13 13 13 13 13 12 12 12 12 13 13 14
23 19 18 16 14 16 18 17 15 15 15 16 16 16 16 15 15 15 12 11 9 9 9 9 9 10 9 8 7 7 7 7 7 7 6 5 4 2 2 3 4 5 6 6 6 7 7 6 5 4 3 5 4 4 5 6 7 8 7 8 9 9 9 9 9 9 9 9 11 12 12 12 12 13 13 13 12 13 13 13 14 14 14 14 15
27 23 20 19 18 18 18 17 17 17 16 16 16 16 17 16 15 14 13 12 11 10 10 10 10 10 9 9 9 8 7 7 7 7 7 6 7 4 2 3 5 5 4 4 4 4 6 6 6 5 5 5 4 4 5 5 4 5 7 7 8 10 11 11 11 11 10 9 10 11 11 11 12 12 12 11 11 12 13 15 15 15 16 16 17
28 24 22 21 20 19 20 20 19 19 19 20 19 18 17 16 15 13 11 11 11 11 11 10 8 8 9 11 11 10 9 8 6 6 6 6 8 5 1 2 4 4 3 4 3 2 4 4 4 5 6 6 6 6 6 6 5 6 7 8 9 10 11 13 14 15 15 14 13 12 11 11 11 12 11 11 12 13 14 15 15 16 18 17 17
28 25 23 22 21 20 21 21 19 19 19 18 18 15 12 12 13 13 12 11 11 11 12 11 9 8 9 11 12 11 9 9 7 7 6 6 7 5 1 2 3 3 3 4 4 4 5 4 5 5 5 5 6 8 7 6 6 7 8 9 10 11 13 14 16 17 17 18 19 17 15 14 13 13 12 11 12 13 14 15 15 16 18 17 15
28 25 24 22 21 19 18 19 18 17 17 16 16 13 10 9 11 12 13 13 14 13 13 12 11 9 8 9 10 10 9 7 7 6 6 6 5 3 1 3 3 3 3 4 4 5 5 5 5 5 3 2 5 8 9 9 9 9 10 11 11 12 14 15 17 19 19 18 19 18 18 18 18 17 15 14 13 12 13 14 15 14 15 16 16
25 24 24 22 21 19 18 18 17 16 16 17 18 16 15 14 13 13 14 15 15 15 14 13 13 12 10 8 8 8 7 6 5 4 4 4 3 1 2 4 4 4 4 4 4 5 4 5 5 3 3 4 7 9 11 12 11 11 12 13 14 14 16 16 18 20 22 21 20 20 20 21 21 21 20 19 19 17 15 14 15 15 16 15 16
23 22 22 21 20 19 18 18 17 17 17 17 17 16 16 17 15 14 14 14 13 12 12 13 13 12 10 8 7 6 5 3 2 2 1 2 2 0 3 4 4 4 4 4 4 4 5 6 6 5 5 7 9 10 11 12 12 11 12 14 16 17 17 17 17 17 19 21 22 23 25 25 25 25 25 25 25 24 21 19 18 16 16 17 16
21 20 20 20 20 19 19 18 17 17 17 17 16 14 14 15 14 13 12 11 9 8 8 8 8 7 6 4 4 3 1 1 1 2 1 2 3 1 4 5 4 4 4 5 4 4 5 6 7 7 8 10 11 11 13 13 13 13 12 12 15 15 16 18 19 18 18 21 22 24 26 27 27 29 29 29 29 28 27 27 24 19 18 20 18
20 19 19 18 18 18 18 17 17 15 15 15 15 13 11 11 11 10 9 8 7 6 6 6 6 5 4 3 4 3 1 2 3 3 2 3 3 2 3 5 4 4 5 6 6 6 5 4 6 8 9 10 12 12 12 12 13 15 15 13 13 13 14 18 19 17 17 20 23 25 24 23 23 25 28 30 31 33 32 31 30 25 21 21 21
18 18 18 17 17 16 16 15 15 14 13 12 12 11 10 10 10 9 8 7 7 6 5 5 6 6 5 3 3 3 1 2 4 4 4 4 3 1 1 3 4 4 7 8 8 8 6 2 3 7 9 10 11 12 13 14 15 17 18 17 17 17 18 21 21 20 19 19 20 23 24 23 21 20 21 24 27 31 33 33 33 30 24 20 20
17 16 16 16 16 16 15 15 15 15 13 12 11 10 9 8 8 7 6 6 7 5 4 4 4 5 5 5 4 3 2 1 5 7 6 6 4 1 2 5 6 6 7 8 8 8 7 4 4 8 12 13 14 15 16 18 19 20 21 21 21 22 22 23 24 24 22 19 19 21 22 23 23 21 20 19 19 23 28 30 31 29 25 21 19
17 16 14 13 13 13 13 14 15 15 14 12 11 10 8 7 7 6 5 5 5 4 4 3 3 4 4 4 4 4 2 2 6 10 10 8 7 5 4 6 7 6 6 7 8 8 8 8 10 13 14 16 19 20 21 22 22 22 22 22 23 23 23 24 25 24 23 22 22 23 23 23 23 24 23 21 19 20 24 25 24 23 22 22 22
17 16 15 13 11 10 10 11 11 11 11 10 9 9 7 6 5 5 4 4 4 4 4 3 3 3 3 3 3 3 3 1 5 10 12 10 9 9 8 8 8 7 7 7 8 8 10 14 18 19 19 21 23 24 25 25 24 23 22 22 23 23 24 24 23 21 21 21 21 22 24 24 24 26 26 23 18 15 17 18 16 15 16 17 19
13 13 13 12 10 9 8 9 9 8 8 8 8 7 7 6 6 5 4 4 3 3 3 3 2 2 2 2 2 2 3 2 2 8 12 12 12 12 11 10 9 9 7 6 7 10 12 16 19 20 20 21 21 21 22 21 20 20 20 20 21 22 20 19 17 15 16 17 17 19 20 21 22 24 24 23 18 11 9 11 11 12 14 14 14
9 9 8 8 9 8 7 7 8 8 7 7 8 8 7 6 6 5 5 4 4 3 3 2 2 2 2 2 3 2 2 3 3 6 10 11 11 12 12 11 11 11 9 7 8 10 13 16 18 18 16 15 15 15 14 14 15 17 18 17 17 17 15 14 13 13 14 16 16 17 18 18 18 18 17 18 15 11 10 11 12 13 13 11 8
8 7 7 7 7 8 8 8 8 8 9 9 9 9 8 7 7 7 7 6 4 4 3 3 3 4 3 3 3 2 2 4 6 7 9 9 9 10 10 10 10 11 10 8 8 10 13 17 18 16 14 13 13 12 12 13 13 14 15 14 13 13 12 12 13 14 16 17 17 17 17 17 17 16 12 9 8 9 9 10 10 9 9 8 7
7 7 7 7 7 7 8 8 8 8 10 12 13 12 11 9 8 8 9 8 7 6 6 6 6 6 5 5 4 2 4 8 9 10 10 10 10 9 8 8 8 8 9 9 10 12 14 15 14 13 12 12 11 10 10 11 11 11 12 12 12 12 13 14 14 14 15 17 18 18 18 17 17 16 12 7 7 7 8 9 10 9 10 11 10
8 8 7 7 7 7 7 7 6 6 7 9 11 12 12 10 8 7 7 7 6 5 6 7 7 7 7 7 7 6 6 8 11 12 11 10 10 9 7 7 7 7 8 10 11 11 12 11 10 9 9 9 9 9 9 10 11 12 12 13 13 13 13 13 13 13 14 15 15 16 18 18 16 15 13 11 10 9 9 9 10 10 12 11 10
7 8 8 7 7 7 6 6 6 5 5 5 6 8 11 13 12 9 8 9 9 8 7 8 8 7 7 8 8 7 7 10 11 10 9 8 7 7 7 6 6 6 6 7 8 9 9 9 8 8 8 9 10 10 11 12 12 13 13 13 14 14 14 14 14 14 15 16 16 17 17 15 13 13 13 13 14 12 11 11 10 11 12 10 8
6 6 7 6 7 6 5 5 5 4 4 4 3 4 6 10 13 13 13 13 13 12 11 11 10 9 8 8 7 7 8 9 8 7 7 7 6 6 5 4 5 6 6 5 6 7 8 7 7 8 8 9 10 10 11 12 13 13 13 13 14 14 15 16 15 13 13 13 14 15 14 10 10 12 12 11 11 10 10 11 10 10 11 10 9
5 5 4 4 5 5 4 4 4 3 4 4 3 2 3 6 8 9 9 9 9 10 11 12 12 11 11 9 8 7 7 7 7 9 10 9 7 7 6 6 6 7 6 5 5 6 7 7 8 8 9 9 10 10 11 12 12 13 13 13 13 13 14 15 14 12 11 10 10 11 11 9 9 10 9 9 9 7 8 10 10 10 11 11 10
7 7 6 4 4 4 4 4 4 4 3 3 3 4 3 2 3 5 5 4 4 5 7 10 12 13 13 11 9 9 8 8 9 10 11 10 8 7 5 4 5 7 8 6 6 7 7 8 9 9 9 10 10 11 11 12 12 13 13 14 14 14 15 15 13 11 10 9 8 10 11 10 9 7 7 8 9 9 8 9 10 10 11 11 12
6 7 7 6 4 4 5 4 4 4 4 3 3 3 4 4 4 1 4 6 4 4 4 6 10 13 13 13 12 10 9 8 9 10 10 9 8 7 6 3 3 6 8 7 6 7 8 8 8 9 9 10 10 11 12 12 13 13 13 14 14 14 15 15 13 11 9 9 9 10 11 11 9 7 6 8 10 11 11 11 12 12 13 13 13
2 2 4 4 4 4 4 4 4 4 4 3 3 3 3 3 4 4 3 1 1 2 5 4 6 11 12 12 12 10 9 8 9 10 11 10 10 10 10 8 6 6 7 7 7 8 8 8 8 9 9 10 10 11 11 12 13 13 13 14 14 14 15 14 13 10 9 9 10 12 12 11 9 8 7 8 11 12 12 12 12 14 13 12 10
2 1 2 1 2 3 3 3 3 4 4 4 3 3 3 3 2 2 3 3 4 4 1 5 4 6 8 9 10 10 9 9 11 11 12 11 10 10 10 9 8 8 8 7 8 8 8 8 9 9 10 10 10 10 11 11 12 12 12 13 13 13 14 14 13 11 9 8 9 9 10 9 7 6 7 9 12 13 13 12 12 12 10 9 7
4 3 3 3 4 5 4 2 1 1 4 6 4 3 3 3 2 2 2 2 4 7 5 2 3 1 2 7 10 8 5 6 8 9 10 11 10 9 8 8 8 8 8 8 8 8 8 8 8 9 9 10 10 10 10 11 11 11 11 11 11 12 12 13 12 11 8 6 6 6 6 5 3 5 8 10 12 13 13 12 10 10 9 8 6
2 3 6 7 8 10 9 2 5 4 2 6 6 3 4 4 3 3 3 2 3 6 5 2 2 2 3 7 10 8 4 4 4 5 7 9 9 8 7 8 8 8 7 7 8 8 8 8 8 8 9 9 9 10 10 10 10 10 10 10 10 11 11 11 11 10 8 6 6 6 4 4 4 4 7 9 10 11 11 10 9 9 9 7 5
2 0 5 6 5 8 10 6 0 1 3 5 4 3 4 4 4 4 3 2 2 4 3 2 1 2 6 8 9 7 5 3 3 4 6 7 7 7 7 8 8 8 8 8 8 8 8 8 8 9 9 9 9 10 10 10 10 10 10 10 10 10 10 9 9 9 9 9 9 11 12 12 12 12 11 10 10 10 10 8 8 7 6 4 4
3 3 2 5 4 4 5 5 4 4 3 4 4 4 4 4 4 4 3 3 2 1 2 2 2 5 8 8 5 5 5 4 5 6 6 7 7 8 8 8 8 8 8 8 9 9 9 9 9 8 9 9 9 9 9 10 10 10 10 10 10 10 10 9 9 9 11 13 13 14 15 16 16 15 15 15 14 12 9 7 6 6 6 5 5
3 4 4 0 3 4 5 4 4 4 4 4 5 4 3 3 4 3 3 3 2 0 1 0 4 7 9 7 5 5 6 6 6 7 6 7 7 8 8 8 8 8 8 9 9 9 8 8 8 8 8 8 8 8 9 9 9 9 9 10 10 10 10 10 11 11 13 14 14 14 14 15 16 16 15 13 11 8 7 7 6 6 6 6 4
4 5 3 1 2 4 4 4 4 3 2 3 4 3 3 3 3 2 2 2 1 1 1 1 3 7 9 9 8 7 7 7 7 7 7 7 7 7 8 8 8 8 8 8 8 8 8 8 8 7 7 7 8 8 9 9 9 9 9 9 9 9 9 10 11 12 13 14 14 14 14 14 13 13 12 10 7 6 6 6 6 5 5 4 3
4 4 4 4 4 3 3 4 4 3 2 2 2 3 3 3 2 2 1 0 1 1 2 2 3 5 8 9 9 8 8 7 7 7 7 7 7 7 7 7 7 7 7 6 6 7 7 7 7 7 7 7 7 8 9 9 9 9 9 9 9 9 8 9 10 11 12 12 12 13 13 12 11 10 9 8 7 7 6 6 5 4 4 4 3
4 4 4 4 4 3 2 3 3 3 3 1 1 2 2 2 1 0 1 2 2 2 3 4 4 5 6 8 9 8 8 8 8 8 7 7 7 7 7 7 7 6 6 5 5 6 7 7 7 7 7 7 7 7 8 8 8 9 9 9 9 8 8 8 8 9 9 9 10 10 10 10 9 9 9 8 7 7 6 5 4 4 4 3 3
5 4 4 4 4 4 3 2 3 2 2 1 1 1 1 1 1 1 2 2 3 3 3 4 5 5 6 6 7 7 8 8 8 8 8 7 7 7 7 7 7 7 7 6 6 6 7 6 6 6 6 6 7 8 8 8 8 8 9 9 9 9 8 7 7 7 7 8 8 8 8 8 7 7 6 6 6 6 6 5 5 5 4 4 3
5 4 4 4 4 4 3 2 3 2 2 2 1 1 1 2 2 2 2 2 3 3 3 4 4 4 5 5 6 6 7 7 8 9 8 8 8 8 8 8 8 8 8 8 8 9 9 8 8 7 6 5 7 8 7 7 7 7 8 7 7 7 6 6 6 6 6 7 7 7 7 7 6 5 5 5 5 5 5 4 4 4 4 4 4
5 4 5 5 4 4 3 1 2 1 1 1 1 1 1 2 2 2 3 3 3 3 3 3 4 4 4 5 5 6 6 6 7 8 8 9 9 9 9 9 9 9 9 8 8 9 9 8 9 9 8 7 7 7 7 6 6 6 6 5 5 5 5 6 6 5 5 6 7 6 5 6 5 5 5 5 5 5 4 4 3 4 4 4 5
6 5 5 5 4 4 3 2 2 2 2 2 2 2 2 1 2 3 3 3 3 3 3 3 3 3 4 5 5 5 6 6 6 7 7 7 8 7 7 8 9 9 9 9 8 8 8 7 6 6 7 8 8 8 7 6 6 5 5 4 4 3 3 4 5 4 4 5 6 5 5 5 6 5 5 5 5 4 4 4 4 4 3 3 4
6 6 6 5 4 5 4 3 3 2 3 3 2 2 2 2 2 2 3 3 3 3 3 3 4 4 4 4 4 4 5 5 5 6 6 6 6 5 6 7 8 8 7 8 8 7 7 7 7 7 7 8 9 8 7 6 5 5 4 4 4 3 2 2 4 5 4 4 4 4 4 5 5 5 5 5 5 5 4 4 4 4 4 4 4
6 6 6 5 5 5 4 4 4 3 2 3 3 2 2 2 3 3 2 2 3 3 3 3 3 3 3 3 3 3 4 4 4 5 5 5 4 4 4 5 6 6 6 6 6 6 6 6 8 8 8 8 8 8 7 6 6 6 5 4 4 3 2 2 3 4 4 4 4 4 4 4 4 4 4 5 5 5 5 4 4 4 5 5 4
8 8 7 6 6 6 6 6 5 4 3 3 3 3 3 3 3 3 3 2 2 2 2 3 3 2 2 2 2 2 3 3 3 3 4 3 3 3 3 3 4 5 5 5 5 5 5 5 6 7 7 7 6 6 7 7 6 6 6 5 4 4 3 3 3 4 5 5 5 4 3 3 3 3 3 3 4 4 4 3 4 4 4 4 4
Wind_Direction
169 173 171 170 173 174 169 164 164 164 163 162 161 158 156 156 154 151 150 154 161 168 169 167 169 173 173 174 176 177 180 188 197 198 193 192 198 209 212 212 218 213 208 216 211 212 217 204 200 198 192 195 190 184 179 167 169 175 176 191 196 202 223 182 135 144 161 156 157 159 161 165 168 171 167 170 176 175 176 191 206 212 200 197 210
164 168 170 171 174 178 173 163 164 167 164 162 162 160 158 157 156 153 154 158 166 173 173 171 173 174 176 178 177 175 178 181 187 188 180 175 183 196 201 205 208 197 200 215 206 208 219 209 202 197 196 199 191 191 187 173 172 171 180 198 177 187 229 170 135 150 159 158 169 161 163 176 178 177 178 176 181 188 191 193 204 213 209 208 221
159 164 169 171 173 176 172 164 167 168 164 164 166 163 160 160 160 158 158 163 172 177 175 173 176 177 176 178 175 172 173 175 181 185 176 174 180 188 194 195 191 181 194 211 199 196 209 207 202 194 189 193 192 193 189 183 181 173 183 197 159 175 229 166 140 156 164 164 177 168 168 187 190 186 186 185 187 194 200 199 200 206 209 212 219
159 161 164 169 171 170 169 167 167 168 166 166 168 166 163 165 165 162 161 168 173 174 174 176 179 178 177 177 171 169 171 171 177 180 177 181 183 182 186 181 179 183 193 210 201 190 199 203 199 192 186 186 191 193 188 187 187 174 176 178 155 175 221 155 146 161 167 169 183 179 172 185 200 198 191 190 192 196 206 208 205 208 213 212 216
160 160 161 165 165 164 169 169 166 168 169 168 170 169 166 167 168 165 163 169 172 170 172 177 179 178 179 177 170 170 172 171 176 176 172 181 184 183 186 181 183 186 180 198 216 194 202 205 199 193 187 182 187 190 188 187 184 175 177 178 164 167 189 171 162 166 168 173 188 191 179 181 201 206 196 194 194 199 210 214 212 215 215 211 218
160 162 160 159 157 157 161 163 167 171 169 169 171 169 168 169 168 166 165 167 169 171 173 176 178 179 179 177 173 172 171 170 176 174 170 176 181 183 186 183 185 186 179 190 210 212 213 209 200 195 190 182 183 185 184 188 186 176 184 196 178 159 171 198 193 177 175 178 185 193 191 187 196 207 205 201 199 201 209 216 220 220 217 213 218
162 160 155 152 153 154 155 158 166 172 171 172 173 171 169 169 166 165 166 168 170 172 172 171 176 179 176 174 171 166 165 167 169 175 178 178 178 182 188 191 189 186 192 197 201 249 224 210 203 198 191 180 179 180 178 184 191 180 185 208 195 163 170 197 203 193 196 194 188 192 198 196 198 208 212 206 205 210 211 214 222 222 220 220 217
164 159 152 147 147 151 155 157 162 171 174 173 172 171 166 162 162 162 161 164 169 168 166 167 173 175 169 167 164 157 152 148 149 163 175 174 179 182 185 199 199 193 204 202 201 254 217 200 201 186 174 175 175 179 182 184 193 188 186 210 206 166 170 196 207 202 209 215 207 202 204 204 203 211 218 212 210 217 219 219 224 224 222 222 219
160 152 146 136 134 145 154 156 160 170 171 168 168 167 161 158 157 154 153 157 161 159 156 156 157 156 155 155 150 140 127 129 140 138 117 134 173 188 186 205 209 204 212 207 202 222 200 165 176 157 166 183 179 181 189 186 189 193 188 205 218 188 182 200 214 214 215 219 221 218 215 215 211 211 217 220 216 219 224 226 228 230 230 228 225
140 129 132 135 137 147 154 156 161 164 162 164 167 163 160 158 150 147 150 153 152 150 150 151 151 150 151 145 135 126 121 138 154 154 117 106 124 170 183 201 212 209 216 214 206 217 204 146 115 119 148 171 177 181 188 186 187 194 185 186 203 214 209 212 220 223 222 222 223 223 221 223 220 213 212 217 219 223 230 232 233 234 235 238 237
126 119 128 144 149 155 161 167 169 161 156 159 158 154 155 152 144 143 146 148 149 152 152 151 147 142 137 135 141 154 149 150 166 173 165 143 99 93 172 194 209 210 212 215 208 208 204 169 143 132 131 141 155 164 173 182 191 202 201 190 201 218 222 222 227 227 226 228 226 223 222 225 225 220 218 219 219 224 232 239 241 239 236 241 249
106 106 115 127 129 138 152 161 159 150 148 148 145 140 135 129 126 126 124 125 134 141 133 121 121 129 136 144 156 167 164 167 177 177 180 183 157 139 188 186 197 209 206 213 215 203 200 188 169 164 158 155 156 157 169 178 188 203 212 208 213 224 227 232 237 237 239 242 237 232 229 229 227 224 225 226 224 225 231 237 241 243 243 244 249
86 84 93 106 108 112 121 124 123 121 122 123 123 122 118 114 116 118 116 115 113 112 107 105 117 133 145 152 152 154 158 166 180 183 187 189 176 181 236 204 195 208 205 215 233 210 202 202 194 197 198 192 199 216 217 217 220 227 233 233 230 229 229 234 241 248 258 264 256 245 240 241 239 234 232 233 232 231 234 238 240 244 249 249 249
85 81 80 89 95 98 103 107 109 112 115 117 118 118 111 104 107 111 113 113 109 104 102 108 125 137 140 146 144 141 144 144 152 167 174 181 182 185 256 235 201 204 198 209 235 225 221 228 219 216 216 218 230 236 229 235 249 252 249 247 245 243 240 239 239 243 249 255 258 257 253 252 252 248 245 245 242 240 241 244 246 247 250 254 256
83 84 80 81 85 91 99 106 109 111 114 116 119 120 108 98 101 106 111 116 120 119 112 112 125 133 136 142 140 134 136 136 140 147 147 157 171 172 202 249 225 219 210 212 224 225 231 245 247 245 240 228 229 233 235 245 254 256 255 250 246 248 246 244 243 242 242 244 247 252 254 256 256 254 250 247 244 243 243 245 250 254 255 255 252
73 77 77 79 82 86 95 102 104 105 107 111 117 121 121 117 115 116 122 128 129 126 117 112 117 120 123 132 136 135 134 134 141 147 148 152 149 138 244 244 235 241 231 224 234 234 233 239 245 257 264 231 223 229 236 247 256 261 261 257 254 253 249 246 246 244 242 242 241 243 246 247 247 246 242 237 236 239 244 245 244 246 248 248 245
64 70 72 76 81 88 95 98 97 99 103 108 113 118 122 124 123 122 126 131 132 131 128 127 125 118 114 119 128 132 130 130 139 147 158 167 150 78 311 259 240 249 242 233 244 245 232 231 243 274 290 254 243 243 244 249 257 264 266 264 262 261 258 256 254 249 246 245 244 243 244 245 247 246 245 241 238 239 244 244 238 238 245 249 250
57 64 68 71 75 81 91 94 93 94 97 100 105 111 115 117 117 117 120 124 126 129 133 135 134 129 126 124 124 125 126 126 133 150 170 194 181 59 329 294 263 259 256 251 261 254 242 246 254 264 265 255 252 256 257 258 261 268 275 274 269 268 267 266 266 261 252 249 252 254 253 253 254 251 249 247 246 247 247 244 240 242 250 254 254
50 56 63 70 73 76 81 85 85 86 90 93 95 98 101 104 103 103 107 110 110 115 124 129 133 137 135 126 117 112 131 191 226 243 252 241 214 222 333 315 293 296 290 279 283 272 256 262 265 259 259 259 258 260 262 264 264 264 270 275 274 274 274 272 273 273 267 261 263 267 266 263 262 259 255 252 250 249 248 245 245 245 248 253 255
45 52 58 66 74 79 82 84 83 82 83 88 92 91 92 99 101 97 97 104 108 114 119 117 117 120 115 107 106 92 46 291 285 278 280 275 236 205 359 338 325 335 324 303 298 291 271 254 254 259 263 262 262 265 270 274 275 271 271 274 275 273 275 276 274 275 277 270 263 263 267 268 267 264 261 257 254 253 250 247 246 245 245 251 254
39 45 51 57 67 78 83 85 88 87 81 78 81 84 88 97 104 102 97 103 108 112 119 119 120 121 116 111 116 118 135 304 323 325 321 313 275 195 20 324 293 312 322 311 299 292 285 263 244 261 267 269 272 276 278 283 288 286 282 281 279 278 280 283 280 278 283 280 266 259 259 260 260 257 254 253 252 252 252 250 246 245 244 249 256
38 38 42 45 53 64 71 76 81 84 82 75 71 74 80 85 89 90 90 96 100 102 114 126 133 137 136 130 122 123 138 4 4 4 357 348 340 306 283 288 284 300 318 314 303 296 299 321 312 282 276 281 287 289 288 289 290 290 289 287 286 285 285 285 284 282 284 284 276 267 262 259 259 258 250 246 244 245 251 254 250 244 239 240 247
41 39 37 37 41 47 55 62 68 70 70 70 67 66 69 71 75 78 84 94 100 99 106 122 134 143 145 137 121 112 105 20 9 11 9 2 359 355 333 318 314 313 311 308 308 310 308 301 291 282 280 283 286 288 291 292 292 291 290 289 288 288 287 286 286 285 283 281 278 275 272 269 268 266 261 259 254 247 249 253 249 241 234 235 241
41 37 32 30 34 40 45 51 57 59 58 59 60 61 62 67 75 78 80 89 104 107 109 117 125 128 129 127 114 104 115 111 355 5 10 10 8 3 353 343 334 323 317 312 307 305 296 285 280 282 286 287 288 289 291 293 295 294 293 292 292 293 294 292 289 287 282 279 275 273 272 272 271 270 269 267 262 252 245 243 240 232 226 230 237
42 37 31 26 23 30 41 47 50 55 59 60 60 58 58 59 61 64 68 73 78 85 94 99 99 97 102 113 114 99 105 130 35 14 16 16 11 5 1 359 351 343 338 321 304 300 295 289 288 292 296 296 296 296 294 294 294 294 294 294 294 295 295 290 285 281 277 273 272 271 270 270 269 269 270 267 260 242 223 219 211 203 206 217 231
47 44 42 35 26 26 34 43 47 51 56 62 62 56 54 55 53 48 51 58 59 61 65 70 85 92 83 79 86 87 101 123 97 41 23 13 4 359 358 357 354 352 350 336 326 325 316 308 307 310 312 313 309 303 297 293 290 289 289 288 285 282 280 276 275 278 277 275 275 275 274 276 276 274 276 272 255 222 198 201 203 203 210 217 222
52 50 47 43 39 35 33 36 43 47 48 49 50 47 42 42 45 43 37 31 35 53 59 51 54 59 58 56 59 80 102 89 64 36 18 4 353 350 349 347 346 348 346 337 331 327 316 310 312 316 317 316 312 305 301 297 291 286 284 277 265 261 266 275 281 284 284 282 282 281 281 283 283 279 278 268 235 207 199 204 207 204 201 191 173
54 56 52 48 45 39 34 36 44 55 56 51 44 38 30 28 37 41 32 19 19 27 35 43 44 34 29 34 27 31 71 61 34 9 352 342 338 339 341 340 339 337 326 312 307 310 310 307 310 312 309 305 303 300 299 299 296 295 297 293 282 277 283 289 286 281 280 280 280 281 283 284 280 276 271 250 215 204 203 207 206 193 181 179 173
47 46 42 41 40 37 37 38 43 62 78 73 60 48 41 39 41 35 23 23 35 37 32 39 40 27 24 32 27 22 35 27 2 344 336 330 327 329 329 324 321 318 309 302 307 319 319 309 304 309 311 312 314 315 316 317 316 313 313 312 304 296 294 294 291 289 290 289 284 282 284 281 274 269 267 259 247 236 225 222 216 194 183 185 184
48 45 40 33 27 25 33 36 34 42 64 82 83 71 60 54 51 49 50 54 60 63 60 56 53 48 42 35 25 16 6 353 341 340 345 343 337 333 324 315 313 316 316 314 315 316 308 296 298 314 324 326 326 325 323 321 318 315 313 311 306 301 296 294 293 293 295 293 287 283 284 283 273 266 264 264 263 255 240 230 214 188 182 183 172
51 53 50 37 17 12 25 34 32 38 46 52 81 111 95 75 62 56 57 58 57 56 53 48 45 46 45 35 21 4 349 345 354 16 25 19 12 3 351 350 357 353 347 335 310 292 286 294 312 324 327 325 323 320 316 314 312 310 308 306 305 305 302 296 289 281 280 287 289 286 285 282 275 270 267 262 259 246 224 215 204 186 184 182 165
43 44 55 56 35 24 31 28 23 33 39 34 35 63 119 115 97 77 62 53 51 50 44 37 32 29 28 28 20 4 359 11 32 42 41 40 42 41 39 41 37 25 13 348 314 303 312 326 330 329 326 324 320 316 314 312 309 306 304 303 302 302 300 299 294 284 278 285 295 293 291 287 278 271 264 251 238 216 195 197 194 184 178 170 156
29 23 24 28 25 28 31 24 22 30 27 22 27 24 22 58 104 125 130 116 85 65 51 40 34 27 20 18 16 9 11 26 34 37 42 50 54 47 37 40 44 36 24 358 330 330 342 342 335 331 330 327 323 321 319 315 312 310 309 308 306 304 302 302 302 300 298 298 296 289 287 286 278 267 253 235 221 199 177 173 172 166 157 144 134
27 27 22 9 357 13 24 18 15 16 10 9 18 21 22 15 357 350 156 159 160 139 95 48 34 30 22 14 10 9 11 22 31 35 42 50 48 30 11 2 28 29 19 2 347 348 348 340 334 332 329 325 323 322 319 316 316 317 316 315 317 321 321 318 318 322 324 322 318 310 302 294 282 264 243 222 208 189 168 157 153 147 137 127 123
20 60 54 28 5 2 7 6 5 1 351 346 347 354 12 11 347 347 15 26 256 185 152 121 53 35 27 16 12 18 26 31 37 42 44 46 44 32 22 21 25 18 8 2 360 357 350 340 336 334 331 330 330 329 327 325 326 326 324 325 329 335 336 335 338 346 348 343 335 323 312 301 285 261 227 197 183 169 151 142 139 135 131 127 130
313 192 165 159 353 359 356 343 344 347 338 329 330 337 336 334 335 338 348 353 338 323 191 140 97 42 33 25 19 26 38 39 38 40 39 36 32 23 16 19 22 16 12 10 5 357 350 348 346 343 342 342 341 338 337 336 334 331 329 329 333 338 337 333 331 335 343 350 343 322 306 298 281 243 202 174 162 153 139 128 124 125 129 131 138
335 355 352 327 320 329 328 283 232 340 321 298 289 288 289 291 303 305 312 9 354 320 310 92 95 42 26 25 13 7 12 18 24 30 28 20 16 12 10 15 18 15 14 12 6 357 353 355 354 351 350 350 347 346 346 344 342 341 340 338 341 349 352 346 338 334 337 347 347 329 309 301 272 199 172 151 139 135 129 120 117 124 130 128 125
308 359 359 337 310 313 322 294 165 155 252 265 269 293 296 286 290 294 303 13 353 303 302 23 42 323 345 5 355 338 316 318 348 13 16 11 10 13 19 24 23 19 18 15 10 5 2 2 2 1 1 2 1 1 3 2 359 358 356 354 357 5 11 13 13 15 21 30 33 36 45 53 70 120 144 139 128 123 118 112 112 118 122 120 118
240 93 13 358 314 311 332 345 336 213 260 260 268 286 278 278 289 288 286 316 317 296 303 328 349 13 11 354 334 322 322 341 12 19 15 16 18 18 25 31 27 22 21 18 14 12 10 10 14 16 15 17 18 18 19 20 19 18 16 15 17 18 20 24 32 42 55 68 73 75 76 74 72 77 86 92 94 96 99 103 111 118 121 123 126
211 184 26 11 344 299 306 313 303 295 282 264 267 266 255 262 278 278 286 304 301 289 312 320 58 46 17 354 342 343 347 8 39 33 22 26 26 21 25 31 26 23 22 18 15 16 15 16 20 23 23 27 29 30 31 30 29 30 32 32 32 33 35 39 46 57 71 81 83 82 81 81 79 77 73 72 73 75 74 76 86 97 101 107 112
246 232 217 329 351 311 281 277 303 327 321 290 277 272 262 264 272 275 297 312 298 283 338 22 87 58 30 22 52 45 14 14 35 32 26 30 27 23 26 26 21 21 20 16 16 18 18 20 23 26 30 34 35 36 35 33 32 35 38 39 41 43 45 49 52 59 70 75 73 70 71 75 79 78 75 70 66 64 62 66 73 80 87 98 108
274 280 252 238 321 316 304 301 312 324 308 281 276 279 272 263 265 271 292 307 306 52 54 91 103 78 56 49 55 49 36 35 36 30 27 29 26 24 26 23 19 19 18 16 18 20 20 25 29 31 35 37 35 35 35 32 33 39 42 43 45 46 48 55 61 64 68 70 68 67 67 67 68 73 78 79 72 62 62 67 70 71 79 87 89
256 280 286 291 296 297 310 319 323 328 315 279 262 263 259 252 256 260 236 74 52 73 68 53 66 69 54 44 42 45 47 44 37 33 32 29 26 27 27 22 20 20 18 19 25 27 28 34 38 37 38 36 32 34 36 34 36 43 46 47 48 47 48 54 59 61 62 61 61 63 66 64 56 53 61 76 83 78 72 69 65 64 71 71 54
246 263 279 293 300 300 314 334 354 3 353 327 244 248 253 238 240 291 97 80 62 60 60 51 52 55 46 39 42 47 49 46 43 40 39 36 32 32 30 25 25 30 32 32 32 33 35 40 42 42 42 42 39 39 39 39 39 41 44 46 47 48 49 52 55 57 58 59 59 59 59 58 55 51 53 64 73 73 70 65 58 57 65 70 66
248 267 288 302 306 303 315 31 61 38 336 304 265 276 269 155 101 74 83 83 68 66 66 58 56 56 51 45 44 46 49 52 49 45 45 44 41 40 43 44 46 52 57 55 53 55 55 51 47 44 44 50 54 49 41 41 45 44 43 46 47 46 48 52 53 54 57 57 57 56 50 47 50 54 57 60 62 63 64 59 49 48 51 52 58
250 263 282 293 300 299 309 3 25 356 332 337 333 332 86 107 97 75 76 82 80 79 80 77 72 64 56 53 51 50 51 54 53 51 52 52 48 52 63 67 65 68 73 73 74 77 78 75 72 69 66 76 80 64 40 33 40 40 39 44 48 51 56 55 47 49 58 59 57 54 49 45 47 51 52 51 51 61 71 68 54 51 52 48 53
241 247 270 285 292 284 282 319 8 358 14 41 58 109 115 113 108 95 86 91 100 99 90 86 82 72 64 61 60 59 59 57 56 58 58 54 52 58 68 73 73 77 83 85 83 82 79 75 76 76 72 70 70 55 31 20 29 35 35 39 49 69 87 76 51 38 46 54 51 43 33 33 39 45 46 43 46 59 73 76 68 65 59 49 48
230 235 257 275 278 272 261 207 170 156 115 92 103 133 136 125 118 113 109 107 108 103 98 95 87 77 75 73 66 62 63 60 58 59 59 55 54 58 68 77 78 76 78 79 77 73 68 62 62 68 63 48 37 30 25 25 30 31 31 36 44 58 85 81 65 59 56 47 39 28 19 25 33 40 42 40 43 50 55 55 58 63 59 48 49
231 236 249 260 267 271 273 254 230 195 126 112 136 158 147 136 129 122 118 117 113 103 95 95 90 81 79 77 69 64 63 58 55 57 58 55 56 58 65 78 82 78 75 73 67 58 53 46 42 50 55 45 30 23 27 38 43 37 30 30 30 28 36 76 93 94 78 42 22 22 32 36 38 43 45 40 35 44 55 58 56 58 53 46 51
233 236 244 252 255 254 249 247 253 245 165 153 168 163 149 151 146 135 130 132 126 117 103 96 93 90 85 77 66 64 63 56 53 56 55 52 56 56 53 60 66 63 59 59 54 47 42 39 36 36 42 45 42 36 35 41 46 43 34 27 25 34 58 104 120 109 80 49 34 36 45 46 47 54 57 46 35 45 64 66 52 53 60 54 48
232 230 236 243 247 249 242 231 230 236 229 210 187 164 164 178 166 148 152 161 137 116 112 112 109 104 97 84 72 68 68 61 54 53 50 46 48 52 47 47 51 45 39 40 47 46 40 37 36 34 32 39 49 50 44 41 41 41 40 41 42 52 72 101 122 119 97 69 53 45 46 49 44 38 35 34 33 42 57 48 27 34 51 46 32